| time (UTC) | temp F | wind direction | speed knots | gust knots | rain 1hr in | rain 24hr in | rain mn in | humidity % | barometer mb |
| 20260506014119 | 66 | 161 | 2.6 | 9.6 | 0.00 | 0.32 | 0.17 | 36 | 1011.4 |
| 20260506013119 | 66 | 172 | 7.0 | 11.3 | 0.00 | 0.33 | 0.17 | 36 | 1011.4 |
| 20260506012119 | 67 | 126 | 11.3 | 13.0 | 0.00 | 0.33 | 0.17 | 36 | 1011.6 |
| 20260506011119 | 68 | 160 | 7.8 | 12.2 | 0.00 | 0.33 | 0.17 | 37 | 1011.6 |
| 20260506010119 | 68 | 147 | 3.5 | 13.0 | 0.00 | 0.33 | 0.17 | 38 | 1011.6 |
| 20260506005119 | 68 | 164 | 7.0 | 10.4 | 0.00 | 0.33 | 0.17 | 39 | 1011.6 |
| 20260506004119 | 68 | 167 | 4.3 | 13.9 | 0.00 | 0.33 | 0.17 | 40 | 1011.4 |
| 20260506002119 | 69 | 174 | 2.6 | 13.0 | 0.00 | 0.33 | 0.17 | 39 | 1011.1 |
| 20260506001118 | 68 | 178 | 3.5 | 11.3 | 0.00 | 0.33 | 0.17 | 41 | 1011.1 |
| 20260506000118 | 69 | 166 | 5.2 | 13.0 | 0.00 | 0.33 | 0.17 | 40 | 1011.1 |
| 20260505235118 | 71 | 154 | 8.7 | 12.2 | 0.00 | 0.33 | 0.17 | 37 | 1011.3 |
| 20260505234118 | 71 | 116 | 3.5 | 13.9 | 0.00 | 0.33 | 0.17 | 37 | 1011.3 |
| 20260505233118 | 72 | 138 | 6.1 | 15.6 | 0.00 | 0.33 | 0.17 | 36 | 1011.5 |
| 20260505232118 | 71 | 169 | 7.8 | 14.8 | 0.00 | 0.33 | 0.17 | 34 | 1011.0 |
| 20260505231117 | 72 | 156 | 5.2 | 13.0 | 0.00 | 0.33 | 0.17 | 35 | 1011.5 |
| 20260505230117 | 71 | 126 | 5.2 | 14.8 | 0.00 | 0.33 | 0.17 | 34 | 1011.2 |
| 20260505225117 | 71 | 113 | 7.0 | 15.6 | 0.00 | 0.33 | 0.17 | 34 | 1011.2 |
| 20260505224118 | 71 | 145 | 6.1 | 14.8 | 0.00 | 0.33 | 0.17 | 35 | 1011.3 |
| 20260505223117 | 72 | 170 | 4.3 | 13.9 | 0.00 | 0.33 | 0.17 | 35 | 1011.6 |
| 20260505222117 | 72 | 142 | 3.5 | 9.6 | 0.00 | 0.33 | 0.17 | 35 | 1011.8 |
| 20260505221117 | 72 | 130 | 2.6 | 13.9 | 0.00 | 0.33 | 0.17 | 36 | 1011.9 |
| 20260505220117 | 71 | 184 | 6.1 | 12.2 | 0.00 | 0.33 | 0.17 | 37 | 1011.7 |
| 20260505215116 | 72 | 156 | 5.2 | 13.9 | 0.00 | 0.33 | 0.17 | 36 | 1012.0 |
| 20260505214116 | 69 | 178 | 4.3 | 10.4 | 0.00 | 0.33 | 0.17 | 39 | 1011.7 |
| 20260505213116 | 70 | 132 | 4.3 | 12.2 | 0.00 | 0.33 | 0.17 | 42 | 1011.8 |
| 20260505212116 | 70 | 163 | 6.1 | 13.0 | 0.00 | 0.33 | 0.17 | 44 | 1011.9 |
| 20260505210116 | 71 | 149 | 8.7 | 12.2 | 0.00 | 0.33 | 0.17 | 47 | 1012.6 |
| 20260505204115 | 72 | 164 | 7.0 | 13.0 | 0.00 | 0.33 | 0.17 | 49 | 1012.6 |
| 20260505203115 | 69 | 139 | 7.0 | 14.8 | 0.00 | 0.33 | 0.17 | 50 | 1012.1 |
| 20260505202116 | 71 | 122 | 6.1 | 13.9 | 0.00 | 0.33 | 0.17 | 50 | 1012.2 |
| 20260505200115 | 70 | 150 | 4.3 | 14.8 | 0.00 | 0.33 | 0.17 | 49 | 1012.3 |
| 20260505195115 | 68 | 92 | 2.6 | 11.3 | 0.00 | 0.33 | 0.17 | 56 | 1012.1 |
| 20260505194115 | 68 | 139 | 3.5 | 7.8 | 0.00 | 0.33 | 0.17 | 58 | 1012.3 |
| 20260505193145 | 68 | 116 | 2.6 | 8.7 | 0.00 | 0.33 | 0.17 | 57 | 1012.3 |
| 20260505192115 | 67 | 135 | 3.5 | 8.7 | 0.00 | 0.33 | 0.17 | 60 | 1012.4 |
| 20260505191144 | 65 | 134 | 3.5 | 9.6 | 0.00 | 0.33 | 0.17 | 63 | 1012.3 |
| 20260505185115 | 67 | 143 | 1.7 | 8.7 | 0.00 | 0.33 | 0.17 | 62 | 1012.8 |
| 20260505184114 | 67 | 71 | 3.5 | 7.8 | 0.00 | 0.33 | 0.17 | 66 | 1013.1 |
| 20260505183114 | 65 | 101 | 4.3 | 6.1 | 0.00 | 0.33 | 0.17 | 67 | 1012.8 |
| 20260505182114 | 65 | 85 | 4.3 | 7.0 | 0.00 | 0.33 | 0.17 | 67 | 1012.9 |
| 20260505181114 | 63 | 131 | 3.5 | 7.0 | 0.00 | 0.33 | 0.17 | 68 | 1012.7 |
| 20260505180143 | 64 | 131 | 2.6 | 7.0 | 0.00 | 0.33 | 0.17 | 66 | 1012.7 |
| 20260505175113 | 64 | 126 | 7.0 | 7.0 | 0.00 | 0.33 | 0.17 | 71 | 1012.8 |
| 20260505174143 | 63 | 76 | 5.2 | 8.7 | 0.00 | 0.33 | 0.17 | 71 | 1012.7 |
| 20260505173113 | 63 | 51 | 1.7 | 7.0 | 0.00 | 0.33 | 0.17 | 70 | 1012.7 |
| 20260505172113 | 63 | 116 | 4.3 | 7.0 | 0.00 | 0.33 | 0.17 | 71 | 1012.7 |
| 20260505171143 | 63 | 172 | 0.9 | 7.0 | 0.00 | 0.33 | 0.17 | 73 | 1012.7 |
| 20260505170143 | 63 | 149 | 0.9 | 7.0 | 0.00 | 0.33 | 0.17 | 75 | 1012.7 |
| 20260505165113 | 60 | 120 | 1.7 | 6.1 | 0.00 | 0.33 | 0.17 | 77 | 1012.3 |
| 20260505164143 | 60 | 118 | 2.6 | 8.7 | 0.00 | 0.33 | 0.17 | 80 | 1012.0 |
| 20260505163112 | 60 | 97 | 0.9 | 6.1 | 0.00 | 0.33 | 0.17 | 81 | 1012.0 |
| 20260505162112 | 60 | 125 | 2.6 | 7.0 | 0.00 | 0.33 | 0.17 | 81 | 1012.0 |
| 20260505161142 | 60 | 112 | 7.0 | 7.0 | 0.00 | 0.33 | 0.17 | 80 | 1011.9 |
| 20260505160112 | 60 | 110 | 2.6 | 5.2 | 0.00 | 0.33 | 0.17 | 82 | 1012.0 |
| 20260505152141 | 59 | 125 | 2.6 | 6.1 | 0.00 | 0.33 | 0.17 | 83 | 1011.8 |
| 20260505151141 | 59 | 127 | 0.0 | 4.3 | 0.00 | 0.33 | 0.17 | 84 | 1011.7 |
| 20260505150111 | 59 | 143 | 1.7 | 5.2 | 0.00 | 0.33 | 0.17 | 86 | 1011.7 |
| 20260505130140 | 57 | 182 | 0.0 | 0.0 | 0.00 | 0.33 | 0.17 | 92 | 1010.5 |
| 20260505123139 | 56 | 182 | 0.0 | 0.0 | 0.00 | 0.33 | 0.17 | 91 | 1011.0 |
| 20260505121139 | 56 | 182 | 0.0 | 0.0 | 0.00 | 0.33 | 0.17 | 91 | 1010.9 |
| 20260505120139 | 56 | 182 | 0.0 | 0.0 | 0.00 | 0.33 | 0.17 | 92 | 1010.9 |
| 20260505115138 | 56 | 182 | 0.0 | 0.0 | 0.01 | 0.33 | 0.17 | 92 | 1010.9 |
| 20260505114108 | 56 | 182 | 0.0 | 0.0 | 0.01 | 0.33 | 0.17 | 92 | 1011.3 |
| 20260505113138 | 56 | 182 | 0.0 | 0.0 | 0.01 | 0.33 | 0.17 | 92 | 1011.3 |
| 20260505111108 | 56 | 182 | 0.0 | 0.9 | 0.02 | 0.33 | 0.17 | 92 | 1011.3 |
| 20260505110138 | 57 | 182 | 0.0 | 2.6 | 0.02 | 0.33 | 0.17 | 93 | 1011.3 |
| 20260505102137 | 57 | 82 | 0.0 | 0.0 | 0.01 | 0.31 | 0.15 | 93 | 1012.6 |
| 20260505101137 | 57 | 82 | 0.0 | 0.0 | 0.02 | 0.31 | 0.15 | 93 | 1012.5 |
| 20260505100137 | 57 | 82 | 0.0 | 0.0 | 0.04 | 0.31 | 0.15 | 93 | 1012.5 |
| 20260505094137 | 56 | 82 | 0.0 | 0.0 | 0.04 | 0.30 | 0.14 | 93 | 1012.6 |
| 20260505093137 | 56 | 82 | 0.0 | 0.0 | 0.05 | 0.30 | 0.14 | 93 | 1012.6 |
| 20260505091125 | 56 | 82 | 0.0 | 1.7 | 0.06 | 0.29 | 0.13 | 93 | 1013.1 |
| 20260505090124 | 57 | 82 | 0.0 | 3.5 | 0.04 | 0.27 | 0.11 | 92 | 1013.4 |
| 20260505085123 | 56 | 93 | 3.5 | 7.0 | 0.04 | 0.26 | 0.10 | 92 | 1013.7 |
| 20260505084123 | 57 | 105 | 6.1 | 8.7 | 0.05 | 0.26 | 0.10 | 92 | 1014.5 |
| 20260505083123 | 57 | 116 | 5.2 | 8.7 | 0.06 | 0.25 | 0.09 | 92 | 1014.5 |
| 20260505082123 | 57 | 103 | 3.5 | 7.0 | 0.07 | 0.25 | 0.09 | 92 | 1014.3 |
| 20260505081123 | 57 | 74 | 1.7 | 6.1 | 0.06 | 0.23 | 0.07 | 92 | 1014.9 |
| 20260505075123 | 57 | 82 | 3.5 | 6.1 | 0.07 | 0.22 | 0.06 | 92 | 1015.0 |
| 20260505074123 | 57 | 92 | 5.2 | 6.1 | 0.07 | 0.21 | 0.05 | 92 | 1015.3 |
| 20260505073123 | 57 | 62 | 3.5 | 5.2 | 0.06 | 0.19 | 0.03 | 92 | 1015.3 |
| 20260505072122 | 57 | 76 | 1.7 | 4.3 | 0.06 | 0.18 | 0.02 | 92 | 1015.1 |
| 20260505071122 | 57 | 81 | 1.7 | 5.2 | 0.07 | 0.17 | 0.01 | 92 | 1015.3 |
| 20260505070122 | 57 | 84 | 0.0 | 5.2 | 0.06 | 0.16 | 0.00 | 91 | 1015.3 |
| 20260505065122 | 57 | 72 | 3.5 | 4.3 | 0.06 | 0.15 | 0.15 | 91 | 1015.1 |
| 20260505064122 | 57 | 74 | 0.9 | 4.3 | 0.05 | 0.14 | 0.14 | 91 | 1015.4 |
| 20260505063122 | 57 | 74 | 1.7 | 3.5 | 0.04 | 0.13 | 0.13 | 90 | 1015.4 |
| 20260505062121 | 57 | 105 | 0.0 | 3.5 | 0.03 | 0.12 | 0.12 | 90 | 1015.4 |
| 20260505061121 | 57 | 183 | 0.0 | 2.6 | 0.01 | 0.10 | 0.10 | 90 | 1015.3 |
| 20260505060121 | 57 | 183 | 0.0 | 0.0 | 0.02 | 0.10 | 0.10 | 90 | 1015.3 |
| 20260505055121 | 57 | 183 | 0.0 | 0.0 | 0.01 | 0.09 | 0.09 | 90 | 1014.7 |
| 20260505054121 | 57 | 183 | 0.0 | 0.0 | 0.02 | 0.09 | 0.09 | 89 | 1014.9 |
| 20260505053121 | 57 | 183 | 0.0 | 1.7 | 0.02 | 0.09 | 0.09 | 89 | 1014.9 |
| 20260505052121 | 57 | 183 | 0.0 | 2.6 | 0.03 | 0.09 | 0.09 | 89 | 1014.5 |
| 20260505051121 | 57 | 183 | 0.0 | 3.5 | 0.05 | 0.09 | 0.09 | 88 | 1014.4 |
| 20260505050121 | 57 | 98 | 0.0 | 7.0 | 0.04 | 0.08 | 0.08 | 87 | 1014.4 |
| 20260505040120 | 58 | 107 | 0.0 | 6.1 | 0.01 | 0.04 | 0.04 | 78 | 1014.4 |
| 20260505035120 | 58 | 184 | 0.0 | 4.3 | 0.01 | 0.04 | 0.04 | 80 | 1014.0 |
| 20260505034120 | 58 | 185 | 0.0 | 5.2 | 0.01 | 0.04 | 0.04 | 81 | 1013.4 |
| 20260505033120 | 58 | 149 | 0.0 | 3.5 | 0.01 | 0.04 | 0.04 | 83 | 1013.4 |
| 20260505032120 | 57 | 140 | 0.0 | 7.0 | 0.00 | 0.03 | 0.03 | 82 | 1013.0 |
| 20260505025119 | 58 | 101 | 0.9 | 6.1 | 0.01 | 0.03 | 0.03 | 76 | 1013.1 |
| 20260505024119 | 58 | 108 | 5.2 | 12.2 | 0.02 | 0.03 | 0.03 | 75 | 1012.5 |
| 20260505023119 | 57 | 76 | 2.6 | 11.3 | 0.03 | 0.03 | 0.03 | 76 | 1012.5 |
| 20260505022119 | 57 | 57 | 4.3 | 11.3 | 0.03 | 0.03 | 0.03 | 76 | 1012.9 |
| 20260505021118 | 58 | 51 | 6.1 | 12.2 | 0.03 | 0.03 | 0.03 | 74 | 1013.5 |
| 20260505020118 | 58 | 68 | 1.7 | 7.8 | 0.02 | 0.02 | 0.02 | 73 | 1013.5 |
| 20260505015118 | 59 | 85 | 1.7 | 5.2 | 0.02 | 0.02 | 0.02 | 74 | 1013.3 |